Weather History for Honolulu, HI

Change the Weather History Date:

Friday, August 2, 2013

  Actual Average Record
Temperature  
Mean Temperature 81 °F 82 °F  
Max Temperature 88 °F 88 °F 91 °F (1985)
Min Temperature 74 °F 75 °F 69 °F (1950)
Degree Days  
Heating Degree Days 0 0  
Month to date heating degree days 0 0  
Since 1 June heating degree days 0 0  
Since 1 July heating degree days 0 0  
Cooling Degree Days 16 17  
Month to date cooling degree days 32 34  
Year to date cooling degree days 2384 2494  
Since 1 June cooling degree days 924 992  
Growing Degree Days 30 (Base 50)    
Moisture  
Dew Point 65 °F    
Average Humidity 59    
Maximum Humidity 74    
Minimum Humidity 43    
Precipitation  
Precipitation T in 0.02 in 0.42 in (1958)
Month to date precipitation T 0.04  
Year to date precipitation 8.98 8.38  
Snow  
Snow 0.00 in - - ()
Month to date snowfall 0.0  
Since 1 June snowfall 0.0  
Since 1 July snowfall 0.0  
Snow Depth 0.00 in    
Sea Level Pressure  
Sea Level Pressure 30.03 in    
Wind  
Wind Speed 12 mph (ENE)    
Max Wind Speed 22 mph    
Max Gust Speed 30 mph    
Visibility 10 miles    
Events      
T = Trace of Precipitation, MM = Missing Value Source: NWS Daily Summary

Daily Weather History Graph

Daily Weather History Graph

Search for Another Location

Airport:

Trip Planner

Search our weather history database for the weather conditions in past years. The results will help you decide how hot, cold, wet, or windy it might be!

Date:

Astronomy

Aug. 02, 2013 Rise Set
Actual Time 6:05 AM HST 7:09 PM HST
Civil Twilight 5:42 AM HST 7:33 PM HST
Nautical Twilight 5:14 AM HST 8:01 PM HST
Astronomical Twilight 4:45 AM HST 8:30 PM HST
Moon 2:41 AM HST (8/2) 4:11 PM HST (8/2)
Length of Visible Light 13h 51m
Length of Day
13h 04m
Waning Crescent, 14% of the Moon is Illuminated
Aug 2
Waning Crescent
Aug 6
New
Aug 14
First Quarter
Aug 20
Full
Aug 27
Last Quarter

Hourly Weather History & Observations

Time (HST) Temp. Heat Index Dew Point Humidity Pressure Visibility Wind Dir Wind Speed Gust Speed Precip Events Conditions
12:53 AM 75.9 °F - 66.0 °F 71% 30.05 in 10.0 mi ENE 11.5 mph - N/A   Mostly Cloudy
1:53 AM 75.9 °F - 66.0 °F 71% 30.04 in 10.0 mi ENE 9.2 mph - N/A   Scattered Clouds
2:53 AM 75.0 °F - 66.9 °F 76% 30.02 in 10.0 mi ENE 10.4 mph - 0.00 in   Scattered Clouds
3:53 AM 75.0 °F - 66.0 °F 73% 30.02 in 10.0 mi NE 10.4 mph - N/A   Partly Cloudy
4:53 AM 75.0 °F - 66.0 °F 73% 30.02 in 10.0 mi ENE 8.1 mph - N/A   Partly Cloudy
5:53 AM 75.9 °F - 66.0 °F 71% 30.02 in 10.0 mi ENE 10.4 mph - N/A   Scattered Clouds
6:53 AM 75.9 °F - 66.9 °F 74% 30.04 in 10.0 mi NE 8.1 mph - 0.00 in   Scattered Clouds
7:53 AM 79.0 °F - 66.0 °F 64% 30.04 in 10.0 mi NE 12.7 mph - N/A   Scattered Clouds
8:53 AM 81.0 °F 82.7 °F 64.9 °F 58% 30.05 in 10.0 mi ENE 15.0 mph - N/A   Scattered Clouds
9:53 AM 82.9 °F 84.6 °F 64.9 °F 54% 30.06 in 10.0 mi NE 9.2 mph - N/A   Scattered Clouds
10:53 AM 82.9 °F 84.0 °F 63.0 °F 51% 30.05 in 10.0 mi East 9.2 mph - N/A   Mostly Cloudy
11:53 AM 84.9 °F 86.1 °F 64.0 °F 49% 30.03 in 10.0 mi ENE 15.0 mph 19.6 mph N/A   Scattered Clouds
12:53 PM 86.0 °F 87.3 °F 64.0 °F 48% 30.01 in 10.0 mi East 17.3 mph 23.0 mph N/A   Scattered Clouds
1:53 PM 87.1 °F 87.8 °F 63.0 °F 44% 30.00 in 10.0 mi NE 15.0 mph 23.0 mph N/A   Scattered Clouds
2:53 PM 86.0 °F 87.3 °F 64.0 °F 48% 29.99 in 10.0 mi ENE 17.3 mph 24.2 mph N/A   Scattered Clouds
3:53 PM 84.9 °F 85.9 °F 63.0 °F 48% 29.99 in 10.0 mi ENE 16.1 mph 29.9 mph N/A   Mostly Cloudy
4:53 PM 84.0 °F 85.4 °F 64.0 °F 51% 29.99 in 10.0 mi ENE 16.1 mph 24.2 mph N/A   Scattered Clouds
5:53 PM 82.9 °F 84.4 °F 64.0 °F 53% 29.99 in 10.0 mi ENE 16.1 mph 23.0 mph N/A   Scattered Clouds
6:53 PM 80.1 °F 81.9 °F 64.9 °F 60% 30.01 in 10.0 mi NE 13.8 mph 21.9 mph N/A   Scattered Clouds
7:53 PM 79.0 °F - 66.0 °F 64% 30.02 in 10.0 mi NE 12.7 mph - N/A   Mostly Cloudy
8:53 PM 77.0 °F - 66.9 °F 71% 30.04 in 10.0 mi NE 15.0 mph - 0.00 in   Scattered Clouds
9:53 PM 77.0 °F - 66.9 °F 71% 30.05 in 10.0 mi ENE 10.4 mph - N/A   Scattered Clouds
10:53 PM 77.0 °F - 66.9 °F 71% 30.05 in 10.0 mi East 11.5 mph - N/A   Mostly Cloudy
11:53 PM 75.9 °F - 66.0 °F 71% 30.05 in 10.0 mi NE 10.4 mph - N/A   Partly Cloudy